Location: Unspecified
(0.0000°N, 0.0000°E)
Time: 15:13:23
(UTC+00:00)

STARLINK-36825 - Pass Details

Date: 04 March 2026
Orbit: 271 x 272 km, 53.2° (Epoch: 6 March)

Event Time Altitude Azimuth Distance (km) Brightness Sun altitude
Rises 19:02:48 0° 219° (SW) 1,853 6.1 -12.7°
Reaches altitude 10° 19:04:42 10° 223° (SW) 1,051 4.8 -13.2°
Maximum altitude 19:06:59 57° 304° (WNW) 315 1.6 -13.8°
Enters shadow 19:08:20 21° 18° (NNE) 669 2.8 -14.1°
